Flag for Brazil

Past Weather in 27°34'10.537"S, 48°32'14.347"W, Brazil — Yesterday and Last 2 Weeks

Now
91 °F

Sunny.


Feels Like: 93 °F
Forecast: 89 / 70 °F
Wind: 14 mph from South

Location: Florianopolis Aeroporto
Current Time: Oct 1, 2020 at 5:17:22 pm
Latest Report: Oct 1, 2020 at 4:00 pm
Visibility: 10 mi
Pressure29.68 "Hg
Humidity: 41%
Dew Point: 64 °F
Location of 27°34'10.537"S, 48°32'14.347"WLocation

Past Weather in 27°34'10.537"S, 48°32'14.347"W — Graph

°F

27°34'10.537"S, 48°32'14.347"W Temperature Yesterday

Maximum temperature yesterday: 82 °F (at 12:39 pm)
Minimum temperature yesterday: 68 °F (at 12:00 am)
Average temperature yesterday: 72 °F

High & Low Weather Summary for the Past Weeks

 TemperatureHumidityPressure
High91 °F (Oct 1, 4:00 pm)100% (Sep 17, 12:00 am)30.33 "Hg (Sep 17, 12:00 am)
Low52 °F (Sep 22, 6:00 am)32% (Sep 21, 2:00 pm)29.59 "Hg (Sep 28, 5:00 am)
Average68 °F77%30.01 "Hg
* Reported Sep 16 4:00 pm — Oct 1 4:00 pm, 27°34'10.537"S, 48°32'14.347"W. Weather by CustomWeather, © 2020

Note: Actual official high and low records may vary slightly from our data, if they occured in-between our weather recording intervals... More about our weather records

27°34'10.537"S, 48°32'14.347"W Weather History for the Previous 24 Hours

Scroll right to see more
 ConditionsComfort  
Time TempWeatherWind HumidityBarometerVisibility
4:00 pm
Thu, Oct 1
91 °FSunny.14 mph41%29.68 "Hg10 mi
3:00 pm90 °FSunny.12 mph59%29.68 "Hg10 mi
2:00 pm90 °FSunny.10 mph52%29.68 "Hg10 mi
1:00 pm90 °FSunny.12 mph52%29.71 "Hg10 mi
12:00 pm86 °FSunny.13 mph55%29.83 "Hg10 mi
11:00 am84 °FSunny.14 mph62%29.77 "Hg10 mi
10:00 am81 °FSunny.14 mph70%29.80 "Hg10 mi
9:00 am79 °FSunny.16 mph74%29.80 "Hg10 mi
8:00 am75 °FSunny.14 mph83%29.83 "Hg10 mi
7:00 am73 °FPassing clouds.12 mph94%29.83 "HgN/A
6:00 am73 °FPassing clouds.13 mph89%29.86 "HgN/A
5:00 am73 °FPassing clouds.14 mph89%29.86 "HgN/A
4:00 am73 °FPassing clouds.13 mph94%29.86 "HgN/A
3:00 am73 °FPassing clouds.13 mph94%29.89 "HgN/A
2:00 am72 °FPassing clouds.9 mph100%29.92 "HgN/A
1:00 am73 °FPassing clouds.13 mph94%29.92 "HgN/A
12:00 am72 °FPassing clouds.17 mph100%29.98 "HgN/A
11:00 pm
Wed, Sep 30
72 °FPassing clouds.14 mph100%29.98 "HgN/A
10:00 pm72 °FThunderstorms. Passing clouds.22 mph94%29.92 "Hg5 mi
9:00 pm72 °FThunderstorms. Passing clouds.17 mph94%29.95 "Hg5 mi
8:28 pm72 °FThunderstorms. Passing clouds.17 mph94%30.01 "Hg3 mi
8:00 pm72 °FThunderstorms. Passing clouds.16 mph94%30.01 "HgN/A
7:00 pm72 °FThunderstorms. Partly cloudy.8 mph94%29.95 "HgN/A
6:00 pm70 °FThunderstorms. Partly sunny.6 mph100%29.98 "Hg4 mi
5:40 pm70 °FThunderstorms. Partly sunny.6 mph100%30.01 "Hg2 mi
5:00 pm70 °FThunderstorms. Partly sunny.6 mph94%29.98 "HgN/A
Weather by CustomWeather, © 2020

See weather overview